User: anonymous   Login
Location: Newark
(25.0000°N, 73.5000°E)
Time: 20:03:16
(UTC+00:00)
Language:

Transit 4A - Orbit

View from above orbital plane
View from above orbital plane
View from above satellite
View from above satellite

Ground track
Ground track

The orbit data is extracted from the following two-line orbital elements,

1   116U 61015A   21210.20307877 -.00000044  00000-0  24865-4 0  9999
2   116  66.8104 293.8529 0068596  83.3727 277.5154 13.91793957 48914
Epoch (UTC): 29 July 2021 04:52:26
Eccentricity: 0.0068596
inclination: 66.8104°
perigee height: 872 km
apogee height: 972 km
right ascension of ascending node: 293.8529°
argument of perigee: 83.3727°
revolutions per day: 13.91793957
mean anomaly at epoch: 277.5154°
orbit number at epoch: 4891

The dashed part of the orbit path shows where the satellite is in the earth's shadow,  

DLR